Tracking 18851 objects as of 24-Nov-2017
HD Live streaming from Space Station
objects crossing your sky now

FENGYUN 1C DEB

Track FENGYUN 1C DEB now!
10-day predictions


NORAD ID: 30821
Int'l Code: 1999-025AVF
Perigee: 696.7 km
Apogee: 838.2 km
Inclination: 99.1 °
Period: 100.0 minutes
Semi major axis: 7138 km
RCS: 0.0115 m2 (small)
Launch date: May 10, 1999
Source: People's Republic of China (PRC)
Launch site: Taiyaun Space Center, China (TSC)

Note: This is SATELLITE DEBRIS
aabbcc
Your satellite tracking list
Your tracking list is empty




NASA's NSSDC Master Catalog

Two Line Element Set (TLE):
1 30821U 99025AVF 17328.32292368  .00000306  00000-0  10877-3 0  9990
2 30821  99.0624 235.9372 0099124 242.4134 245.5381 14.39449375564352
Source of the keplerian elements: AFSPC